Regional Weather Roundup
Issued by NWS

Home | Current Version | Previous Version | Graphics & Text | Print | Product List | Glossary On
Versions: 1 2 3 4 5 6 7 8 9 10 11 12 13 14 15 16 17 18 19 20 21 22 23 24 25 26 27 28 29 30 31 32 33 34 35 36 37 38 39 40 41 42 43 44 45 46 47 48 49 50
049
ASUS43 KLOT 241109
RWRIL

ILLINOIS REGIONAL WEATHER ROUNDUP
NATIONAL WEATHER SERVICE CHICAGO/ROMEOVILLE IL
600 AM CDT TUE OCT 24 2017

NOTE: "FAIR" INDICATES FEW OR NO CLOUDS BELOW 12,000 FEET WITH NO
SIGNIFICANT WEATHER AND/OR OBSTRUCTIONS TO VISIBILITY.

* THESE STATIONS ARE NOT UNDER NWS QUALITY CONTROL. THEY ALSO MAY NOT
  REPORT WEATHER SUCH AS PRECIPITATION OR FOG.

ILZ001-002-007-009-015-016-024-241200-
NORTHWEST ILLINOIS

CITY           SKY/WX    TMP DP  RH WIND       PRES   REMARKS
MOLINE         CLOUDY    48  32  53 NW18G29   29.67R
STERLING*      LGT RAIN  43  41  93 W17         N/A
SAVANNA*       LGT RAIN  45  41  86 W13       29.63S
$$

ILZ003-004-008-010-011-017-018-241200-
NORTH CENTRAL ILLINOIS

CITY           SKY/WX    TMP DP  RH WIND       PRES   REMARKS
ROCKFORD       LGT RAIN  45  41  86 NW18G28   29.58R
FREEPORT*      RAIN      43  41  95 NW14G22   29.60S
ROCHELLE*      RAIN      44  42  95 NW15      29.59S
DE KALB*       LGT RAIN  44  42  95 W16G26    29.56R
PERU*          DRIZZLE   44  40  86 NW12      29.62S
$$

ILZ005-006-012>014-019>023-241200-
NORTHEAST ILLINOIS

CITY           SKY/WX    TMP DP  RH WIND       PRES   REMARKS
CHICAGO-OHARE  LGT RAIN  48  44  86 W13G21    29.50F
CHICAGO-MIDWAY LGT RAIN  48  46  93 W12       29.52S FOG
AURORA         LGT RAIN  46  44  93 W17G24    29.56R
LANSING*       RAIN      47  46  99 W10       29.55S
JOLIET*        RAIN      48  46  95 W9        29.56S
WAUKEGAN       LGT RAIN  47  47 100 CALM      29.47S FOG
DUPAGE AIRPORT LGT RAIN  46  45  96 W17G26    29.52F
KANKAKEE*      DRIZZLE   46  44  91 W13       29.59S
WHEELING       LGT RAIN  48  46  93 W13       29.50F
MORRIS*        LGT RAIN  46  44  91 W14       29.57S
ROMEOVILLE*    LGT RAIN  46  45  95 W12G18    29.55S
NORTHERLY ISL    N/A     48  45  89 SW7         N/A
$$

LMZ740>746-241200-
SOUTHERN LAKE MICHIGAN

STATION/POSITION SKY/WX   TEMP    WIND        PRES    VSBY  WAVE
                          AIR SEA DIR/SP/G                  HT/PER
                          (F)     (DEG/KT/KT) (MB)    (MI)  (FT/S)
SOUTHERN BUOY              52 60  310/ 14/ 14  997.4          3/ 5
WILMETTE HARBOR            49 56  260/ 16/ 19   N/A           2/ 2
HARRISON CRIB              49     260/ 18/ 23   N/A
BURNHAM HARBOR             48     230/  3/ 11   N/A
CALUMET HARBOR             47     230/  6/  9  999.4F
BURNS HARBOR               49     230/ 12/ 18 1000.7S
MICHIGAN CITY              48     200/ 17/ 20   N/A
MICHIGAN CITY 6N           50 57  240/ 19/ 23   N/A           4/ 4
ST. JOSEPH                 52 57  260/ 19/ 25  999.1          7/ 5
$$

ILZ025>027-034>036-040-047-049-050-058-095>099-241200-
WEST-CENTRAL ILLINOIS

CITY           SKY/WX    TMP DP  RH WIND       PRES   REMARKS
QUINCY         CLOUDY    48  31  51 NW21G35   29.77R
MACOMB*        CLOUDY    45  35  66 W22       29.76R
JACKSONVILLE*  LGT RAIN  46  36  69 W12G17    29.74R
PITTSFIELD*    CLOUDY    50  35  55 W15G28    29.77S
$$

ILZ028>032-037-038-041>044-048-051>054-059>061-241200-
CENTRAL ILLINOIS

CITY           SKY/WX    TMP DP  RH WIND       PRES   REMARKS
PONTIAC        DRIZZLE   46  45  94 W17G24    29.62S
BLOOMINGTON    LGT RAIN  45  38  76 W14       29.65S
DECATUR        LGT RAIN  47  39  74 W10G20    29.69S
PEORIA         CLOUDY    47  36  65 W10       29.67S
LACON*         CLOUDY    47  36  64 NW13G24   29.63S
LINCOLN*       CLOUDY    49  39  69 W5        29.69R
SPRINGFIELD    LGT RAIN  49  38  65 NW14G21   29.72R
TAYLORVILLE    CLOUDY    47  37  69 W15G24    29.72S
$$

ILZ033-039-045-046-055>057-062-063-241200-
EAST-CENTRAL ILLINOIS

CITY           SKY/WX    TMP DP  RH WIND       PRES   REMARKS
CHAMPAIGN      CLOUDY    47  40  76 W16       29.66
DANVILLE*      CLOUDY    46  42  88 SW9       29.62S
RANTOUL*       CLOUDY    47  42  81 W9G20     29.64S
MATTOON        CLOUDY    47  40  76 W8        29.69S
PARIS*         CLOUDY    46  42  85 SW10      29.69R
$$

ILZ079-100>102-241200-
SOUTHWEST ILLINOIS

CITY           SKY/WX    TMP DP  RH WIND       PRES   REMARKS
ALTON          CLOUDY    50  37  59 W17G26    29.77F
BELLEVILLE     CLOUDY    51  34  53 W9        29.78S
CAHOKIA*       CLOUDY    53  33  46 W12G20    29.80S
SPARTA*        CLOUDY    49  34  56 W13G18    29.82S
$$

ILZ064>066-069>071-074>076-080>082-084>086-088>090-092>094-241200-
SOUTH-CENTRAL ILLINOIS

CITY           SKY/WX    TMP DP  RH WIND       PRES   REMARKS
CARBONDALE     MOCLDY    47  37  68 W10       29.83S
CAIRO*         CLEAR     49  37  62 SW6       29.88S
EFFINGHAM*     CLOUDY    49  39  67 SW13      29.74S
MARION         MOCLDY    49  37  61 SW8       29.84S
MT. VERNON     MOCLDY    48  38  68 SW9       29.79S
CENTRALIA*     CLOUDY    49  40  72 SW9       29.77S
SALEM*         CLOUDY    50  39  65 SW9       29.77S
METROPOLIS*    CLEAR     51  37  58 W7        29.87S
$$

ILZ067-068-072-073-078-083-087-091-241200-
SOUTHEAST ILLINOIS

CITY           SKY/WX    TMP DP  RH WIND       PRES   REMARKS
LAWRENCEVILLE  LGT RAIN  50  41  71 W9        29.75R
FLORA*         CLOUDY    51  39  63 SW8       29.76S
FAIRFIELD*     CLOUDY    46  43  86 SW3       29.78R
HARRISBURG*    PTCLDY    48  39  71 S9        29.83R
ROBINSON*      CLOUDY    48  42  78 W10G16    29.74R
CARMI*         CLOUDY    49  42  78 SW8       29.79S
$$

ABBREVIATIONS USED IN REMARKS
   TC - TEMPERATURE IN CELSIUS
  WCI - WIND CHILL INDEX
   HX - HEAT INDEX
  VSB - VISIBILITY
$$





USA.gov is the U.S. government's official web portal to all federal, state and local government web resources and services.